星链-34487 (STARLINK-34487)

导读

STARLINK-34487是由美国发射的Starlink星链卫星,发射时间为2025年6月17日。作为SpaceX星链互联网卫星星座的一员,它旨在为全球提供高速低延迟互联网服务,尤其覆盖偏远区域与网络基础设施薄弱地区,该卫星的入轨进一步扩充了星链星座的服务覆盖范围与网络容量。

Basic Information
目录编号:
64417
目录名称:
STARLINK-34487
国际标识:
2025-129F
轨道中心:
EARTH
卫星名称:
星链-34487
卫星全名:
星链-34487 (STARLINK-34487)
卫星状态:
在轨 (已飞行361 天)
发射日期:
2025-06-17 UTC
国别 :
美国 (US)
星等 :
--
Orbit Information
数据来源 国际轨道数据 AOE轨道数据
星历时间 2026-06-13T20:17:13+0800
10小时前
查看轨道信息
2026-06-12T07:00:00+0800
2天前
查看轨道信息
半长轴 6950.168km 6950.178km
偏心率 0.0003819 0.000408
轨道倾角 70.000° 70.000°
近地点辐角 268.557° 274.042°
升交点赤经 192.729° 196.645°
平近点角 91.515° 348.190°
近地点 569.376km 569.205km
远地点 574.686km 574.877km
周期 96.106分钟 96.107分钟
每日圈数 14.983383 14.98335
Detailed Information
固有亮度:
5
最大亮度:
2.5
卫星平台:
Starlink V1.0
覆盖范围:
全球
运营商:
太空探索技术公司
运营商所在国:
美国
制造商(研发单位):
太空探索技术公司
制造商所在国:
美国
使用方式:
暂无
Satellite Introduction
Starlink 计划是 SpaceX 推出的全球卫星互联网项目,通过发射低轨道卫星,为全球尤其是偏远地区提供高速、低延迟的互联网服务。自 2019 年起,Starlink 已部署数千颗卫星,旨在缩小全球数字鸿沟,推动互联网普及。该项目还为军事、航空等行业提供通信支持,带来广泛经济效益。
2D Orbit Map
3D Orbit Map
Orbit Altitude Analysis Chart
Orbit Inclination Analysis Chart
Orbit Comprehensive Analysis Chart
View Comprehensive Chart